This is the latest recevied weather packets stored in our database for station/object KK4MOR. If no packets are shown the sender has not sent any weather packets the latest 10 day(s).
| Time | Temp. | Humidity | Pressure | Rain* | Wind** | Luminosity | Snow |
|---|---|---|---|---|---|---|---|
| 1788143448 | 73° F | 91% | 762.3 mmHg | 0 in | - | - | - |
| 1788142548 | 74° F | 91% | 762.2 mmHg | 0 in | - | - | - |
| 1788141648 | 74° F | 90% | 762.2 mmHg | 0 in | - | - | - |
| 1788140758 | 74° F | 89% | 762.2 mmHg | 0 in | - | - | - |
| 1788139849 | 75° F | 88% | 762 mmHg | 0 in | - | - | - |
| 1788138958 | 75° F | 87% | 761.8 mmHg | 0 in | - | - | - |
| 1788138045 | 76° F | 86% | 761.8 mmHg | 0 in | - | - | - |
| 1788137145 | 77° F | 85% | 761.6 mmHg | 0 in | - | - | - |
| 1788136251 | 78° F | 83% | 761.5 mmHg | 0 in | - | - | - |
| 1788135359 | 79° F | 83% | 761.4 mmHg | 0 in | - | - | - |
| 1788134447 | 80° F | 80% | 761.4 mmHg | 0 in | - | - | - |
| 1788133544 | 81° F | 78% | 761.4 mmHg | 0 in | - | - | - |
| 1788132642 | 83° F | 76% | 761.4 mmHg | 0 in | - | - | - |
| 1788131741 | 84° F | 73% | 761.4 mmHg | 0 in | - | - | - |
| 1788130840 | 86° F | 69% | 761.5 mmHg | 0 in | - | - | - |
| 1788129956 | 87° F | 66% | 761.5 mmHg | 0 in | - | - | - |
| 1788129042 | 89° F | 60% | 761.5 mmHg | 0 in | - | - | - |
| 1788128139 | 89° F | 60% | 761.4 mmHg | 0 in | - | - | - |
| 1788127250 | 88° F | 58% | 761.2 mmHg | 0 in | - | - | - |
| 1788126347 | 89° F | 58% | 761.2 mmHg | 0 in | - | - | - |
| 1788125436 | 89° F | 58% | 761.2 mmHg | 0 in | - | - | - |
| 1788124538 | 90° F | 59% | 761.3 mmHg | 0 in | - | - | - |
| 1788123635 | 89° F | 59% | 761.5 mmHg | 0 in | - | - | - |
| 1788122737 | 89° F | 57% | 761.5 mmHg | 0 in | - | - | - |
| 1788121830 | 90° F | 56% | 761.6 mmHg | 0 in | - | - | - |
* Rain latest hour (hover to see other rain measurements)
** Current wind speed in m/s (hover to see current wind gust speed)